Tracking 32136 objects as of 11-Nov-2025
HD Live streaming from Space Station
objects crossing your sky now

STARLINK-3864

Track STARLINK-3864 now!
10-day predictions
STARLINK-3864 is classified as:


NORAD ID: 52468
Int'l Code: 2022-049T
Perigee: 545.9 km
Apogee: 547.8 km
Inclination: 53.2 °
Period: 95.4 minutes
Semi major axis: 6917 km
RCS: Unknown
Launch date: May 6, 2022
Source: United States (US)
Launch site: AIR FORCE EASTERN TEST RANGE (AFETR)
Your satellite tracking list
Your tracking list is empty




NASA's NSSDC Master Catalog

Two Line Element Set (TLE):
1 52468U 22049T   25315.14679654  .00002132  00000-0  15192-3 0  9999
2 52468  53.2142 231.2806 0001358  88.0864 272.0283 15.08861258194357
Source of the keplerian elements: AFSPC